Location: Dillon
(41.1766°N, 107.0923°W)
Time: 22:41:48
(UTC+00:00)

SJ-7 - Pass Details

Date: 14 December 2022
Orbit: 549 x 592 km, 97.7° (Epoch: 08 February)

Event Time Altitude Azimuth Distance (km) Brightness Sun altitude
Rises 12:21:59 0° 21° (NNE) 2,742 8.0 -22.5°
Reaches altitude 10° 12:24:15 10° 31° (NNE) 1,848 7.2 -22.1°
Maximum altitude 12:27:55 35° 98° (E) 924 6.0 -21.4°
Drops below altitude 10° 12:31:37 10° 164° (SSE) 1,857 7.4 -20.7°
Sets 12:33:54 0° 174° (S) 2,757 8.2 -20.3°
